星链-37343(STARLINK-37343)

导读

STARLINK-37343(NORAD编号69159)是SpaceX星链互联网卫星星座中的一颗卫星,运行于近地轨道。2026年3月该卫星突发异常解体,分裂为数十块轨道碎片,SpaceX确认该事故但未使用"爆炸"描述。 据轨道跟踪机构LeoLabs分析,此次解体由卫星"内部高能源"故障引发,而非太空碎片碰撞导致,解体事件与2025年12月另一颗星链卫星解体原因相似。该卫星运行高度约560公里,所有解体碎片预计将在数周内逐渐离轨,再入大气层完全烧毁,SpaceX正针对事故原因展开调查。

基本信息
目录编号:
69159
目录名称:
STARLINK-37343
国际标识:
2026-111M
轨道中心:
EARTH
卫星名称:
星链-37343
卫星全名:
星链-37343(STARLINK-37343)
卫星状态:
在轨 (已飞行68 天)
发射日期:
2026-05-21 UTC
国别 :
美国 (US)
星等 :
--
轨道信息
数据来源 国际轨道数据 AOE轨道数据
星历时间 2026-07-26T23:41:06+0800
1天前
查看轨道信息
2026-07-22T07:00:00+0800
6天前
查看轨道信息
半长轴 6840.772km 6840.671km
偏心率 0.0001158 0.0001598
轨道倾角 53.159° 53.163°
近地点辐角 92.444° 81.759°
升交点赤经 326.907° 348.861°
平近点角 267.670° 248.571°
近地点 461.842km 461.44km
远地点 463.428km 463.628km
周期 93.846分钟 93.844分钟
每日圈数 15.344232 15.34457
详细信息
固有亮度:
5
最大亮度:
2.5
卫星平台:
Starlink V1.0
覆盖范围:
全球
运营商:
太空探索技术公司
运营商所在国:
美国
制造商(研发单位):
太空探索技术公司
制造商所在国:
美国
使用方式:
暂无
卫星简介
Starlink 计划是 SpaceX 推出的全球卫星互联网项目,通过发射低轨道卫星,为全球尤其是偏远地区提供高速、低延迟的互联网服务。自 2019 年起,Starlink 已部署数千颗卫星,旨在缩小全球数字鸿沟,推动互联网普及。该项目还为军事、航空等行业提供通信支持,带来广泛经济效益。
2D轨道图
3D轨道图
轨道高度分析图
轨道倾角分析图
轨道综合分析图
查看轨道综合分析图